Regional Weather Roundup
Issued by NWS

Home | Current Version | Previous Version | Graphics & Text | Print | Product List | Glossary On
Versions: 1 2 3 4 5 6 7 8 9 10 11 12 13 14 15 16 17 18 19 20 21 22 23 24 25 26 27 28 29 30 31 32 33 34 35 36 37 38 39 40 41 42 43 44 45 46
000
ASUS45 KBOU 190207
RWRCO

WEATHER ROUNDUP FOR COLORADO
NATIONAL WEATHER SERVICE DENVER/BOULDER CO
800 PM MDT THU SEP 18 2014

NOTE: "FAIR" INDICATES FEW OR NO CLOUDS BELOW 12000 FEET WITH NO
SIGNIFICANT WEATHER AND/OR OBSTRUCTIONS TO VISIBILITY.

COZ001>005-013-030-031-190300-
...NORTHWEST COLORADO...

CITY           SKY/WX    TMP DP  RH WIND       PRES   REMARKS
CRAIG          CLEAR     66  37  34 CALM      29.98R
HAYDEN         CLEAR     70  36  28 SW6       30.00S
MEEKER         CLEAR     67  39  35 SW8       29.99S
MOUNT WERNER   NOT AVBL
STEAMBOAT SPGS CLEAR     67  41  38 SE6       30.03R
WALDEN         CLEAR     64  32  29 CALM      30.13S
$$

COZ006>008-011-190300-
...WEST CENTRAL VALLEYS...

CITY           SKY/WX    TMP DP  RH WIND       PRES   REMARKS
GRAND JUNCTION CLEAR     76  44  32 NW5       29.87F
MONTROSE       CLEAR     72  46  39 S6        29.98R
EAGLE          PTCLDY    75  37  25 SW8       30.02R
RIFLE          CLEAR     72  39  30 E5        29.92S
DELTA          CLEAR     83  39  21 CALM      29.91R
NUCLA          CLEAR     75  37  25 SW5       30.02R
$$

COZ017>023-064>068-190300-
...SOUTHWEST COLORADO...

CITY           SKY/WX    TMP DP  RH WIND       PRES   REMARKS
DURANGO        CLEAR     72  36  26 W9        30.04R
CORTEZ         CLEAR     63  45  51 CALM      30.00R
PAGOSA SPRINGS PTCLDY    72  30  21 CALM      30.12R
TELLURIDE      NOT AVBL
WOLF CREEK PAS PTCLDY    52  30  43 SW5       30.46S
$$

COZ009-010-012-014-032>034-037-058>063-190300-
...CENTRAL COLORADO...

CITY           SKY/WX    TMP DP  RH WIND       PRES   REMARKS
ASPEN          MOCLDY    67  40  37 SE6       30.12R
BUENA VISTA    PTCLDY    67  28  22 SE5       30.17R
COPPER MTN     NOT AVBL
BERTHOUD PASS  FAIR      45  43  93 MISG      30.52S
COTTONWOOD PAS PTCLDY    64  23  20 SE13      30.31R
GUNNISON       PTCLDY    66  34  30 CALM      30.12R
KREMMLING      MOCLDY    64  32  29 E3        30.09R
LEADVILLE      CLOUDY    60  27  28 SE9       30.29R
MONARCH PASS   CLEAR     52  28  40 E6        30.58R
SALIDA         PTCLDY    71  27  19 SE9       30.19R
SUNLIGHT       CLEAR     59  34  38 W3        30.38R
WILKERSON PASS NOT AVBL
$$

COZ069>075-190300-
...SAN LUIS VALLEY/SANGRE DE CRISTO MOUNTAINS...

CITY           SKY/WX    TMP DP  RH WIND       PRES   REMARKS
ALAMOSA        MOCLDY    66  32  28 SE9       30.12R
LA VETA PASS   CLEAR     54  34  47 NE7       30.36R
SAGUACHE       NOT AVBL
$$

COZ035-036-038>040-190300-
...NORTHERN COLORADO FRONT RANGE...

CITY           SKY/WX    TMP DP  RH WIND       PRES   REMARKS
DENVER INTL AP PTCLDY    71  35  26 S13       29.94S
DMNS CITY PARK   N/A     77  34  20 SE5G14    29.93S
AURORA         PTCLDY    75  35  22 SE15      29.97S
FRONT RANGE AP PTCLDY    73  37  27 S9        29.96
ERIE MUNI ARPT NOT AVBL
BOULDER MUN AP CLEAR     73  41  31 SW6       29.93R
CENTENNIAL     PTCLDY    74  34  23 S15       29.98S
BROOMFIELD     NOT AVBL
FORT COLLINS   CLEAR     75  37  25 E8        29.90R
LONGMONT       CLEAR     70  44  39 SW8       29.93R
$$

COZ041-046-047-076>085-087-088-190300-
...PIKES PEAK/PALMER DIVIDE AND SOUTHERN FOOTHILLS...

CITY           SKY/WX    TMP DP  RH WIND       PRES   REMARKS
COLO. SPRINGS  CLEAR     71  31  22 SE10      30.07R
A. F. ACADEMY  CLEAR     68  32  26 SE7       30.09R
ELLICOTT       NOT AVBL
FALCON         CLEAR     63  32  31 S8        30.12S
FORT CARSON    CLEAR     71  34  26 S5        30.04R
LIMON          CLEAR     73  37  27 S15G22    30.01R
MONUMENT HILL  CLEAR     64  30  27 S14       30.10R
TRINIDAD       CLEAR     71  50  47 SE16      30.05S
$$

COZ042>045-048>051-090-091-190300-
...NORTHEAST COLORADO...

CITY           SKY/WX    TMP DP  RH WIND       PRES   REMARKS
GREELEY ARPT   CLEAR     72  43  35 E6        29.90
AKRON          CLEAR     70  57  63 SE10      29.94R
BURLINGTON     CLEAR     75  48  38 S13       29.95R
WRAY           CLEAR     70  63  79 E14       29.90R
STERLING       CLEAR     77  61  57 SE10      29.86S
HOLYOKE        CLEAR     66  61  82 SE6       29.91R
FORT MORGAN    CLEAR     72  53  52 E12       29.91R
$$

COZ086-089-092>099-190300-
...SOUTHEAST COLORADO...

CITY           SKY/WX    TMP DP  RH WIND       PRES   REMARKS
PUEBLO         CLEAR     78  39  24 S13       29.95R
LA JUNTA       CLEAR     75  51  43 S10       29.96R
LAMAR          CLEAR     74  54  49 S12       29.93R
SPRINGFIELD      N/A     66  56  70 S9        30.02R
$$



USA.gov is the U.S. government's official web portal to all federal, state and local government web resources and services.